| time (UTC) | temp F | wind direction | speed MPH | gust MPH | rain 1hr in | rain 24hr in | rain mn in | humidity % | barometer mb |
| 20260902125602 | 89 | 194 | 0.0 | 0.0 | 0.00 | 0.00 | 0.00 | 39 | 1017.1 |
| 20260902125104 | 89 | 232 | 0.0 | 0.0 | 0.00 | 0.00 | 0.00 | 41 | 1017.1 |
| 20260902124602 | 89 | 242 | 0.0 | 7.0 | 0.00 | 0.00 | 0.00 | 39 | 1017.2 |
| 20260902124103 | 89 | 254 | 0.0 | 7.0 | 0.00 | 0.00 | 0.00 | 39 | 1017.3 |
| 20260902123601 | 89 | 283 | 0.0 | 1.0 | 0.00 | 0.00 | 0.00 | 39 | 1017.5 |
| 20260902123105 | 89 | 205 | 0.0 | 3.0 | 0.00 | 0.00 | 0.00 | 42 | 1017.5 |
| 20260902122602 | 89 | 168 | 1.0 | 4.0 | 0.00 | 0.00 | 0.00 | 40 | 1017.6 |
| 20260902122103 | 89 | 165 | 1.0 | 4.0 | 0.00 | 0.00 | 0.00 | 42 | 1017.6 |
| 20260902121601 | 89 | 204 | 0.0 | 4.0 | 0.00 | 0.00 | 0.00 | 41 | 1017.6 |
| 20260902121104 | 89 | 209 | 0.0 | 4.0 | 0.00 | 0.00 | 0.00 | 41 | 1017.6 |
| 20260902120602 | 88 | 219 | 0.0 | 1.0 | 0.00 | 0.00 | 0.00 | 43 | 1017.7 |
| 20260902115603 | 87 | 155 | 0.0 | 4.0 | 0.00 | 0.00 | 0.00 | 42 | 1017.8 |
| 20260902115105 | 87 | 80 | 0.0 | 4.0 | 0.00 | 0.00 | 0.00 | 42 | 1017.8 |
| 20260902114603 | 87 | 153 | 0.0 | 3.0 | 0.00 | 0.00 | 0.00 | 43 | 1017.9 |
| 20260902113605 | 86 | 122 | 1.0 | 6.0 | 0.00 | 0.00 | 0.00 | 43 | 1018.0 |
| 20260902113103 | 86 | 104 | 0.0 | 6.0 | 0.00 | 0.00 | 0.00 | 44 | 1018.0 |
| 20260902112602 | 85 | 155 | 0.0 | 2.0 | 0.00 | 0.00 | 0.00 | 45 | 1018.0 |
| 20260902112103 | 85 | 91 | 0.0 | 6.0 | 0.00 | 0.00 | 0.00 | 44 | 1018.1 |
| 20260902111602 | 85 | 147 | 0.0 | 6.0 | 0.00 | 0.00 | 0.00 | 44 | 1018.1 |
| 20260902111103 | 86 | 75 | 0.0 | 2.0 | 0.00 | 0.00 | 0.00 | 45 | 1018.2 |
| 20260902110602 | 85 | 189 | 0.0 | 2.0 | 0.00 | 0.00 | 0.00 | 44 | 1018.2 |
| 20260902105602 | 85 | 242 | 0.0 | 5.0 | 0.00 | 0.00 | 0.00 | 45 | 1018.4 |
| 20260902105104 | 84 | 127 | 0.0 | 6.0 | 0.00 | 0.00 | 0.00 | 45 | 1018.5 |
| 20260902104602 | 84 | 84 | 0.0 | 6.0 | 0.00 | 0.00 | 0.00 | 46 | 1018.5 |
| 20260902104102 | 83 | 144 | 0.0 | 0.0 | 0.00 | 0.00 | 0.00 | 46 | 1018.6 |
| 20260902103603 | 83 | 319 | 0.0 | 0.0 | 0.00 | 0.00 | 0.00 | 46 | 1018.7 |
| 20260902103104 | 84 | 341 | 0.0 | 0.0 | 0.00 | 0.00 | 0.00 | 46 | 1018.7 |
| 20260902102602 | 84 | 40 | 0.0 | 0.0 | 0.00 | 0.00 | 0.00 | 46 | 1018.8 |
| 20260902102103 | 84 | 338 | 0.0 | 6.0 | 0.00 | 0.00 | 0.00 | 45 | 1018.7 |
| 20260902101603 | 84 | 181 | 0.0 | 6.0 | 0.00 | 0.00 | 0.00 | 47 | 1018.8 |
| 20260902101102 | 83 | 121 | 0.0 | 3.0 | 0.00 | 0.00 | 0.00 | 47 | 1018.8 |
| 20260902100602 | 83 | 245 | 0.0 | 3.0 | 0.00 | 0.00 | 0.00 | 47 | 1018.8 |
| 20260902095603 | 82 | 37 | 0.0 | 4.0 | 0.00 | 0.00 | 0.00 | 47 | 1018.8 |
| 20260902095104 | 82 | 339 | 0.0 | 5.0 | 0.00 | 0.00 | 0.00 | 48 | 1019.0 |
| 20260902094602 | 82 | 338 | 0.0 | 5.0 | 0.00 | 0.00 | 0.00 | 48 | 1019.1 |
| 20260902094103 | 82 | 113 | 0.0 | 4.0 | 0.00 | 0.00 | 0.00 | 48 | 1019.0 |
| 20260902093602 | 82 | 35 | 0.0 | 4.0 | 0.00 | 0.00 | 0.00 | 48 | 1019.0 |
| 20260902093103 | 82 | 53 | 0.0 | 3.0 | 0.00 | 0.00 | 0.00 | 49 | 1019.0 |
| 20260902092602 | 82 | 9 | 0.0 | 0.0 | 0.00 | 0.00 | 0.00 | 49 | 1019.1 |
| 20260902092102 | 81 | 5 | 0.0 | 0.0 | 0.00 | 0.00 | 0.00 | 51 | 1019.0 |
| 20260902091605 | 81 | 5 | 0.0 | 0.0 | 0.00 | 0.00 | 0.00 | 50 | 1019.1 |
| 20260902090602 | 81 | 96 | 0.0 | 4.0 | 0.00 | 0.00 | 0.00 | 52 | 1019.1 |
| 20260902085603 | 81 | 42 | 0.0 | 3.0 | 0.00 | 0.00 | 0.00 | 52 | 1019.2 |
| 20260902085103 | 80 | 5 | 0.0 | 2.0 | 0.00 | 0.00 | 0.00 | 54 | 1019.2 |
| 20260902084602 | 80 | 11 | 0.0 | 4.0 | 0.00 | 0.00 | 0.00 | 53 | 1019.1 |
| 20260902083603 | 80 | 61 | 0.0 | 6.0 | 0.00 | 0.00 | 0.00 | 53 | 1019.0 |
| 20260902083102 | 79 | 5 | 1.0 | 8.0 | 0.00 | 0.00 | 0.00 | 54 | 1019.0 |
| 20260902082603 | 79 | 49 | 1.0 | 8.0 | 0.00 | 0.00 | 0.00 | 55 | 1018.9 |
| 20260902082102 | 79 | 79 | 0.0 | 5.0 | 0.00 | 0.00 | 0.00 | 54 | 1019.0 |
| 20260902081102 | 79 | 12 | 0.0 | 0.0 | 0.00 | 0.00 | 0.00 | 55 | 1018.9 |
| 20260902080602 | 78 | 69 | 0.0 | 3.0 | 0.00 | 0.00 | 0.00 | 56 | 1018.9 |
| 20260902075600 | 78 | 55 | 0.0 | 7.0 | 0.00 | 0.00 | 0.00 | 56 | 1018.8 |
| 20260902075100 | 78 | 25 | 0.0 | 7.0 | 0.00 | 0.00 | 0.00 | 56 | 1018.8 |
| 20260902074600 | 78 | 32 | 0.0 | 5.0 | 0.00 | 0.00 | 0.00 | 56 | 1018.8 |
| 20260902074100 | 78 | 18 | 0.0 | 3.0 | 0.00 | 0.00 | 0.00 | 57 | 1018.7 |
| 20260902073600 | 77 | 26 | 0.0 | 5.0 | 0.00 | 0.00 | 0.00 | 58 | 1018.7 |
| 20260902073101 | 77 | 88 | 1.0 | 5.0 | 0.00 | 0.00 | 0.00 | 58 | 1018.7 |
| 20260902072600 | 77 | 42 | 1.0 | 6.0 | 0.00 | 0.00 | 0.00 | 58 | 1018.7 |
| 20260902072101 | 76 | 25 | 1.0 | 6.0 | 0.00 | 0.00 | 0.00 | 58 | 1018.6 |
| 20260902071100 | 76 | 5 | 1.0 | 5.0 | 0.00 | 0.00 | 0.00 | 60 | 1018.6 |
| 20260902070600 | 76 | 355 | 1.0 | 7.0 | 0.00 | 0.00 | 0.00 | 59 | 1018.6 |
| 20260902070101 | 75 | 44 | 0.0 | 7.0 | 0.00 | 0.00 | 0.00 | 60 | 1018.6 |
| 20260902065600 | 75 | 338 | 0.0 | 0.0 | 0.00 | 0.00 | 0.00 | 63 | 1018.6 |
| 20260902065104 | 74 | 330 | 0.0 | 0.0 | 0.00 | 0.00 | 0.00 | 65 | 1018.6 |
| 20260902064600 | 74 | 0 | 0.0 | 0.0 | 0.00 | 0.00 | 0.00 | 65 | 1018.6 |
| 20260902064100 | 74 | 311 | 0.0 | 0.0 | 0.00 | 0.00 | 0.00 | 68 | 1018.5 |
| 20260902063600 | 73 | 300 | 0.0 | 0.0 | 0.00 | 0.00 | 0.00 | 69 | 1018.5 |
| 20260902062600 | 72 | 308 | 0.0 | 2.0 | 0.00 | 0.00 | 0.00 | 70 | 1018.5 |
| 20260902062100 | 72 | 311 | 0.0 | 2.0 | 0.00 | 0.00 | 0.00 | 71 | 1018.5 |
| 20260902061602 | 72 | 306 | 0.0 | 4.0 | 0.00 | 0.00 | 0.00 | 72 | 1018.5 |
| 20260902060556 | 71 | 355 | 0.0 | 3.0 | 0.00 | 0.00 | 0.00 | 73 | 1018.3 |
| 20260902060056 | 70 | 321 | 0.0 | 3.0 | 0.00 | 0.00 | 0.00 | 74 | 1018.3 |
| 20260902055558 | 70 | 322 | 0.0 | 2.0 | 0.00 | 0.00 | 0.00 | 75 | 1018.3 |
| 20260902055056 | 70 | 321 | 0.0 | 0.0 | 0.00 | 0.00 | 0.00 | 76 | 1018.3 |
| 20260902054556 | 69 | 321 | 0.0 | 0.0 | 0.00 | 0.00 | 0.00 | 76 | 1018.3 |
| 20260902054056 | 69 | 321 | 0.0 | 0.0 | 0.00 | 0.00 | 0.00 | 76 | 1018.2 |
| 20260902053553 | 69 | 321 | 0.0 | 0.0 | 0.00 | 0.00 | 0.00 | 76 | 1018.2 |
| 20260902053053 | 69 | 322 | 0.0 | 0.0 | 0.00 | 0.00 | 0.00 | 76 | 1018.2 |
| 20260902052047 | 69 | 322 | 0.0 | 0.0 | 0.00 | 0.00 | 0.00 | 77 | 1018.1 |
| 20260902051043 | 68 | 322 | 0.0 | 0.0 | 0.00 | 0.00 | 0.00 | 77 | 1018.0 |
| 20260902050541 | 68 | 322 | 0.0 | 0.0 | 0.00 | 0.00 | 0.00 | 78 | 1018.0 |
| 20260902050040 | 68 | 322 | 0.0 | 0.0 | 0.00 | 0.00 | 0.00 | 77 | 1018.1 |
| 20260902045540 | 68 | 322 | 0.0 | 0.0 | 0.00 | 0.00 | 0.00 | 78 | 1018.1 |
| 20260902045039 | 68 | 322 | 0.0 | 0.0 | 0.00 | 0.00 | 0.00 | 78 | 1018.0 |
| 20260902044538 | 68 | 322 | 0.0 | 0.0 | 0.00 | 0.00 | 0.00 | 77 | 1018.1 |
| 20260902044036 | 68 | 322 | 0.0 | 0.0 | 0.00 | 0.00 | 0.00 | 77 | 1018.1 |
| 20260902043036 | 68 | 322 | 0.0 | 0.0 | 0.00 | 0.00 | 0.00 | 76 | 1018.1 |
| 20260902042031 | 69 | 322 | 0.0 | 0.0 | 0.00 | 0.00 | 0.00 | 76 | 1018.1 |
| 20260902041531 | 69 | 322 | 0.0 | 0.0 | 0.00 | 0.00 | 0.00 | 75 | 1018.1 |
| 20260902040531 | 69 | 322 | 0.0 | 0.0 | 0.00 | 0.00 | 0.00 | 74 | 1018.1 |
| 20260902035531 | 70 | 322 | 0.0 | 0.0 | 0.00 | 0.00 | 0.00 | 73 | 1018.0 |
| 20260902035031 | 69 | 322 | 0.0 | 0.0 | 0.00 | 0.00 | 0.00 | 73 | 1018.0 |
| 20260902034527 | 70 | 322 | 0.0 | 0.0 | 0.00 | 0.00 | 0.00 | 73 | 1018.0 |
| 20260902034021 | 70 | 322 | 0.0 | 0.0 | 0.00 | 0.00 | 0.00 | 73 | 1017.9 |
| 20260902033008 | 69 | 322 | 0.0 | 0.0 | 0.00 | 0.00 | 0.00 | 73 | 1017.9 |
| 20260902032503 | 69 | 322 | 0.0 | 0.0 | 0.00 | 0.00 | 0.00 | 73 | 1017.9 |
| 20260902031502 | 70 | 322 | 0.0 | 0.0 | 0.00 | 0.00 | 0.00 | 74 | 1017.9 |
| 20260902031003 | 70 | 322 | 0.0 | 0.0 | 0.00 | 0.00 | 0.00 | 74 | 1017.9 |
| 20260902030503 | 70 | 322 | 0.0 | 0.0 | 0.00 | 0.00 | 0.00 | 74 | 1017.9 |
| 20260902030006 | 70 | 322 | 0.0 | 0.0 | 0.00 | 0.00 | 0.00 | 74 | 1017.8 |
| 20260902025503 | 70 | 321 | 0.0 | 0.0 | 0.00 | 0.00 | 0.00 | 74 | 1017.8 |
| 20260902025002 | 70 | 321 | 0.0 | 0.0 | 0.00 | 0.00 | 0.00 | 74 | 1017.8 |
| 20260902024502 | 70 | 321 | 0.0 | 0.0 | 0.00 | 0.00 | 0.00 | 74 | 1017.8 |
| 20260902023503 | 70 | 321 | 0.0 | 0.0 | 0.00 | 0.00 | 0.00 | 74 | 1017.9 |
| 20260902023002 | 70 | 321 | 0.0 | 0.0 | 0.00 | 0.00 | 0.00 | 74 | 1017.9 |
| 20260902022502 | 70 | 321 | 0.0 | 0.0 | 0.00 | 0.00 | 0.00 | 74 | 1017.9 |
| 20260902022004 | 70 | 321 | 0.0 | 0.0 | 0.00 | 0.00 | 0.00 | 73 | 1017.9 |
| 20260902021503 | 70 | 321 | 0.0 | 0.0 | 0.00 | 0.00 | 0.00 | 73 | 1017.9 |
| 20260902020502 | 70 | 321 | 0.0 | 0.0 | 0.00 | 0.00 | 0.00 | 73 | 1017.9 |
| 20260902020002 | 70 | 321 | 0.0 | 0.0 | 0.00 | 0.00 | 0.00 | 73 | 1017.9 |
| 20260902015457 | 70 | 321 | 0.0 | 0.0 | 0.00 | 0.00 | 0.00 | 73 | 1017.9 |
| 20260902014951 | 71 | 321 | 0.0 | 0.0 | 0.00 | 0.00 | 0.00 | 73 | 1017.9 |
| 20260902013939 | 71 | 321 | 0.0 | 0.0 | 0.00 | 0.00 | 0.00 | 73 | 1017.9 |
| 20260902013439 | 70 | 321 | 0.0 | 0.0 | 0.00 | 0.00 | 0.00 | 73 | 1017.9 |
| 20260902012937 | 70 | 321 | 0.0 | 0.0 | 0.00 | 0.00 | 0.00 | 73 | 1017.8 |
| 20260902012436 | 70 | 321 | 0.0 | 0.0 | 0.00 | 0.00 | 0.00 | 73 | 1017.8 |
| 20260902011934 | 71 | 321 | 0.0 | 0.0 | 0.00 | 0.00 | 0.00 | 73 | 1017.8 |
| 20260902011431 | 71 | 321 | 0.0 | 0.0 | 0.00 | 0.00 | 0.00 | 73 | 1017.8 |
| 20260902010934 | 71 | 321 | 0.0 | 0.0 | 0.00 | 0.00 | 0.00 | 73 | 1017.9 |
| 20260902010431 | 71 | 325 | 0.0 | 0.0 | 0.00 | 0.00 | 0.00 | 73 | 1017.9 |
| 20260902005931 | 71 | 329 | 0.0 | 0.0 | 0.00 | 0.00 | 0.00 | 72 | 1017.9 |
| 20260902004930 | 71 | 329 | 0.0 | 0.0 | 0.00 | 0.00 | 0.00 | 72 | 1018.0 |
| 20260902004428 | 71 | 329 | 0.0 | 0.0 | 0.00 | 0.00 | 0.00 | 72 | 1018.0 |
| 20260902003928 | 71 | 329 | 0.0 | 0.0 | 0.00 | 0.00 | 0.00 | 71 | 1018.0 |
| 20260902003428 | 71 | 329 | 0.0 | 0.0 | 0.00 | 0.00 | 0.00 | 71 | 1018.0 |
| 20260902002925 | 71 | 329 | 0.0 | 0.0 | 0.00 | 0.00 | 0.00 | 71 | 1018.0 |
| 20260902002425 | 72 | 329 | 0.0 | 0.0 | 0.00 | 0.00 | 0.00 | 70 | 1018.0 |
| 20260902001926 | 72 | 329 | 0.0 | 0.0 | 0.00 | 0.00 | 0.00 | 70 | 1018.0 |
| 20260902001425 | 72 | 329 | 0.0 | 0.0 | 0.00 | 0.00 | 0.00 | 70 | 1018.1 |
| 20260902000422 | 72 | 329 | 0.0 | 2.0 | 0.00 | 0.00 | 0.00 | 69 | 1018.0 |
| 20260901235921 | 72 | 329 | 0.0 | 2.0 | 0.00 | 0.00 | 0.00 | 69 | 1018.1 |
| 20260901235419 | 72 | 329 | 0.0 | 0.0 | 0.00 | 0.00 | 0.00 | 69 | 1018.0 |
| 20260901234916 | 72 | 302 | 0.0 | 0.0 | 0.00 | 0.00 | 0.00 | 69 | 1018.0 |
| 20260901234417 | 72 | 302 | 0.0 | 0.0 | 0.00 | 0.00 | 0.00 | 68 | 1018.0 |
| 20260901233921 | 72 | 302 | 0.0 | 0.0 | 0.00 | 0.00 | 0.00 | 68 | 1018.1 |
| 20260901232915 | 72 | 302 | 0.0 | 0.0 | 0.00 | 0.00 | 0.00 | 68 | 1017.9 |
| 20260901232414 | 72 | 302 | 0.0 | 0.0 | 0.00 | 0.00 | 0.00 | 68 | 1017.9 |
| 20260901231416 | 73 | 302 | 0.0 | 0.0 | 0.00 | 0.00 | 0.00 | 67 | 1017.9 |
| 20260901230913 | 73 | 302 | 0.0 | 0.0 | 0.00 | 0.00 | 0.00 | 67 | 1017.9 |
| 20260901230417 | 73 | 302 | 0.0 | 0.0 | 0.00 | 0.00 | 0.00 | 66 | 1017.9 |
| 20260901225909 | 73 | 302 | 0.0 | 0.0 | 0.00 | 0.00 | 0.00 | 66 | 1017.9 |
| 20260901225409 | 73 | 302 | 0.0 | 0.0 | 0.00 | 0.00 | 0.00 | 66 | 1017.9 |
| 20260901223909 | 73 | 302 | 0.0 | 0.0 | 0.00 | 0.00 | 0.00 | 66 | 1017.9 |
| 20260901223409 | 73 | 302 | 0.0 | 0.0 | 0.00 | 0.00 | 0.00 | 66 | 1017.9 |
| 20260901222911 | 73 | 302 | 0.0 | 0.0 | 0.00 | 0.00 | 0.00 | 66 | 1017.9 |
| 20260901222409 | 73 | 302 | 0.0 | 0.0 | 0.00 | 0.00 | 0.00 | 67 | 1018.0 |
| 20260901221909 | 73 | 140 | 0.0 | 0.0 | 0.00 | 0.00 | 0.00 | 68 | 1017.9 |
| 20260901221410 | 73 | 140 | 0.0 | 0.0 | 0.00 | 0.00 | 0.00 | 68 | 1018.0 |
| 20260901220909 | 73 | 140 | 0.0 | 0.0 | 0.00 | 0.00 | 0.00 | 68 | 1018.0 |
| 20260901215906 | 73 | 140 | 0.0 | 0.0 | 0.00 | 0.00 | 0.00 | 68 | 1018.0 |
| 20260901214905 | 73 | 140 | 0.0 | 0.0 | 0.00 | 0.00 | 0.00 | 66 | 1017.9 |
| 20260901213902 | 74 | 140 | 0.0 | 0.0 | 0.00 | 0.00 | 0.00 | 66 | 1017.9 |
| 20260901213403 | 74 | 140 | 0.0 | 0.0 | 0.00 | 0.00 | 0.00 | 65 | 1017.9 |
| 20260901212902 | 74 | 140 | 0.0 | 0.0 | 0.00 | 0.00 | 0.00 | 65 | 1017.9 |
| 20260901212402 | 74 | 140 | 0.0 | 0.0 | 0.00 | 0.00 | 0.00 | 65 | 1017.9 |
| 20260901211902 | 74 | 140 | 0.0 | 0.0 | 0.00 | 0.00 | 0.00 | 65 | 1017.8 |
| 20260901211404 | 74 | 140 | 0.0 | 0.0 | 0.00 | 0.00 | 0.00 | 64 | 1017.9 |
| 20260901210903 | 74 | 140 | 0.0 | 0.0 | 0.00 | 0.00 | 0.00 | 64 | 1017.8 |
| 20260901210402 | 74 | 140 | 0.0 | 1.0 | 0.00 | 0.00 | 0.00 | 65 | 1017.9 |
| 20260901205902 | 74 | 140 | 0.0 | 1.0 | 0.00 | 0.00 | 0.00 | 65 | 1017.8 |
| 20260901205402 | 74 | 140 | 0.0 | 1.0 | 0.00 | 0.00 | 0.00 | 66 | 1017.8 |
| 20260901204902 | 74 | 140 | 0.0 | 1.0 | 0.00 | 0.00 | 0.00 | 66 | 1017.8 |
| 20260901204403 | 74 | 140 | 0.0 | 0.0 | 0.00 | 0.00 | 0.00 | 66 | 1017.8 |
| 20260901203404 | 75 | 140 | 0.0 | 0.0 | 0.00 | 0.00 | 0.00 | 65 | 1017.7 |
| 20260901202901 | 75 | 140 | 0.0 | 0.0 | 0.00 | 0.00 | 0.00 | 64 | 1017.6 |
| 20260901202403 | 75 | 140 | 0.0 | 0.0 | 0.00 | 0.00 | 0.00 | 64 | 1017.6 |
| 20260901200402 | 76 | 140 | 0.0 | 0.0 | 0.00 | 0.00 | 0.00 | 62 | 1017.6 |
| 20260901195902 | 76 | 140 | 0.0 | 0.0 | 0.00 | 0.00 | 0.00 | 61 | 1017.3 |
| 20260901195402 | 76 | 140 | 0.0 | 0.0 | 0.00 | 0.00 | 0.00 | 59 | 1017.5 |
| 20260901194902 | 76 | 140 | 0.0 | 0.0 | 0.00 | 0.00 | 0.00 | 59 | 1017.5 |
| 20260901194402 | 76 | 140 | 0.0 | 0.0 | 0.00 | 0.00 | 0.00 | 57 | 1017.5 |
| 20260901193903 | 77 | 140 | 0.0 | 0.0 | 0.00 | 0.00 | 0.00 | 57 | 1017.5 |
| 20260901193402 | 77 | 140 | 0.0 | 0.0 | 0.00 | 0.00 | 0.00 | 57 | 1017.5 |
| 20260901192903 | 77 | 140 | 0.0 | 0.0 | 0.00 | 0.00 | 0.00 | 57 | 1017.5 |
| 20260901192402 | 77 | 140 | 0.0 | 0.0 | 0.00 | 0.00 | 0.00 | 57 | 1017.3 |
| 20260901191858 | 78 | 140 | 0.0 | 0.0 | 0.00 | 0.00 | 0.00 | 57 | 1017.3 |
| 20260901191355 | 78 | 140 | 0.0 | 0.0 | 0.00 | 0.00 | 0.00 | 56 | 1017.2 |
| 20260901190854 | 78 | 140 | 0.0 | 0.0 | 0.00 | 0.00 | 0.00 | 55 | 1017.2 |
| 20260901185849 | 79 | 140 | 0.0 | 0.0 | 0.00 | 0.00 | 0.00 | 54 | 1017.1 |
| 20260901185347 | 79 | 140 | 0.0 | 0.0 | 0.00 | 0.00 | 0.00 | 53 | 1017.0 |
| 20260901184849 | 79 | 140 | 0.0 | 0.0 | 0.00 | 0.00 | 0.00 | 54 | 1017.0 |
| 20260901184347 | 79 | 140 | 0.0 | 0.0 | 0.00 | 0.00 | 0.00 | 53 | 1017.0 |
| 20260901183847 | 80 | 140 | 0.0 | 0.0 | 0.00 | 0.00 | 0.00 | 53 | 1017.0 |
| 20260901183343 | 80 | 140 | 0.0 | 0.0 | 0.00 | 0.00 | 0.00 | 52 | 1017.0 |
| 20260901182841 | 80 | 140 | 0.0 | 0.0 | 0.00 | 0.00 | 0.00 | 51 | 1017.0 |
| 20260901182340 | 80 | 140 | 0.0 | 0.0 | 0.00 | 0.00 | 0.00 | 51 | 1017.0 |
| 20260901181841 | 80 | 140 | 0.0 | 0.0 | 0.00 | 0.00 | 0.00 | 50 | 1017.0 |
| 20260901181335 | 80 | 140 | 0.0 | 0.0 | 0.00 | 0.00 | 0.00 | 49 | 1016.9 |
| 20260901180834 | 81 | 140 | 0.0 | 0.0 | 0.00 | 0.00 | 0.00 | 49 | 1016.9 |
| 20260901180331 | 81 | 138 | 0.0 | 1.0 | 0.00 | 0.00 | 0.00 | 49 | 1016.8 |
| 20260901175829 | 81 | 138 | 0.0 | 1.0 | 0.00 | 0.00 | 0.00 | 49 | 1016.8 |
| 20260901174824 | 81 | 138 | 0.0 | 0.0 | 0.00 | 0.00 | 0.00 | 48 | 1016.7 |
| 20260901174322 | 82 | 138 | 0.0 | 0.0 | 0.00 | 0.00 | 0.00 | 47 | 1016.7 |
| 20260901173820 | 82 | 138 | 0.0 | 0.0 | 0.00 | 0.00 | 0.00 | 47 | 1016.7 |
| 20260901173317 | 82 | 138 | 0.0 | 0.0 | 0.00 | 0.00 | 0.00 | 46 | 1016.6 |
| 20260901172816 | 83 | 140 | 0.0 | 0.0 | 0.00 | 0.00 | 0.00 | 45 | 1016.6 |
| 20260901172313 | 83 | 142 | 0.0 | 0.0 | 0.00 | 0.00 | 0.00 | 44 | 1016.6 |
| 20260901171309 | 84 | 126 | 0.0 | 1.0 | 0.00 | 0.00 | 0.00 | 43 | 1016.6 |
| 20260901170807 | 84 | 145 | 0.0 | 1.0 | 0.00 | 0.00 | 0.00 | 43 | 1016.6 |
| 20260901170309 | 84 | 85 | 0.0 | 0.0 | 0.00 | 0.00 | 0.00 | 43 | 1016.7 |
| 20260901165307 | 84 | 109 | 0.0 | 0.0 | 0.00 | 0.00 | 0.00 | 43 | 1016.8 |
| 20260901164806 | 84 | 104 | 0.0 | 0.0 | 0.00 | 0.00 | 0.00 | 44 | 1016.7 |
| 20260901163306 | 84 | 128 | 0.0 | 0.0 | 0.00 | 0.00 | 0.00 | 42 | 1016.8 |
| 20260901162806 | 85 | 74 | 0.0 | 5.0 | 0.00 | 0.00 | 0.00 | 43 | 1016.8 |
| 20260901162306 | 85 | 139 | 1.0 | 6.0 | 0.00 | 0.00 | 0.00 | 42 | 1016.8 |
| 20260901161802 | 85 | 84 | 1.0 | 10.0 | 0.00 | 0.00 | 0.00 | 42 | 1016.8 |
| 20260901161303 | 85 | 101 | 1.0 | 10.0 | 0.00 | 0.00 | 0.00 | 41 | 1016.8 |
| 20260901160304 | 86 | 143 | 1.0 | 6.0 | 0.00 | 0.00 | 0.00 | 42 | 1016.8 |
| 20260901155803 | 86 | 162 | 0.0 | 8.0 | 0.00 | 0.00 | 0.00 | 41 | 1016.8 |
| 20260901155306 | 86 | 106 | 1.0 | 8.0 | 0.00 | 0.00 | 0.00 | 41 | 1016.8 |
| 20260901154302 | 86 | 85 | 1.0 | 7.0 | 0.00 | 0.00 | 0.00 | 41 | 1016.9 |
| 20260901153259 | 85 | 180 | 1.0 | 7.0 | 0.00 | 0.00 | 0.00 | 40 | 1016.9 |
| 20260901152759 | 85 | 115 | 1.0 | 7.0 | 0.00 | 0.00 | 0.00 | 41 | 1017.0 |
| 20260901152259 | 86 | 158 | 2.0 | 9.0 | 0.00 | 0.00 | 0.00 | 41 | 1017.0 |
| 20260901151758 | 86 | 111 | 2.0 | 9.0 | 0.00 | 0.00 | 0.00 | 41 | 1017.1 |
| 20260901150758 | 87 | 131 | 2.0 | 9.0 | 0.00 | 0.00 | 0.00 | 39 | 1017.0 |
| 20260901150253 | 87 | 105 | 2.0 | 8.0 | 0.00 | 0.00 | 0.00 | 40 | 1017.0 |
| 20260901145753 | 87 | 155 | 2.0 | 8.0 | 0.00 | 0.00 | 0.00 | 40 | 1017.1 |
| 20260901145253 | 87 | 131 | 2.0 | 9.0 | 0.00 | 0.00 | 0.00 | 40 | 1017.1 |
| 20260901144753 | 87 | 140 | 3.0 | 9.0 | 0.00 | 0.00 | 0.00 | 40 | 1017.2 |
| 20260901144246 | 87 | 140 | 3.0 | 9.0 | 0.00 | 0.00 | 0.00 | 42 | 1017.1 |
| 20260901143247 | 87 | 166 | 3.0 | 9.0 | 0.00 | 0.00 | 0.00 | 41 | 1017.3 |
| 20260901142749 | 87 | 113 | 2.0 | 9.0 | 0.00 | 0.00 | 0.00 | 42 | 1017.3 |
| 20260901142248 | 86 | 134 | 1.0 | 8.0 | 0.00 | 0.00 | 0.00 | 43 | 1017.5 |
| 20260901141247 | 87 | 103 | 2.0 | 10.0 | 0.00 | 0.00 | 0.00 | 41 | 1017.5 |
| 20260901140248 | 86 | 99 | 3.0 | 11.0 | 0.00 | 0.00 | 0.00 | 42 | 1017.5 |
| 20260901135745 | 86 | 193 | 3.0 | 11.0 | 0.00 | 0.00 | 0.00 | 43 | 1017.5 |
| 20260901134243 | 85 | 114 | 3.0 | 12.0 | 0.00 | 0.00 | 0.00 | 46 | 1017.6 |
| 20260901133739 | 85 | 101 | 2.0 | 10.0 | 0.00 | 0.00 | 0.00 | 47 | 1017.6 |
| 20260901133240 | 85 | 105 | 2.0 | 10.0 | 0.00 | 0.00 | 0.00 | 46 | 1017.7 |
| 20260901132739 | 85 | 84 | 3.0 | 13.0 | 0.00 | 0.00 | 0.00 | 45 | 1017.8 |
| 20260901132239 | 86 | 116 | 3.0 | 13.0 | 0.00 | 0.00 | 0.00 | 45 | 1017.8 |
| 20260901131739 | 85 | 165 | 3.0 | 11.0 | 0.00 | 0.00 | 0.00 | 47 | 1017.8 |
| 20260901131239 | 85 | 124 | 5.0 | 11.0 | 0.00 | 0.00 | 0.00 | 46 | 1017.8 |
| 20260901130739 | 86 | 167 | 4.0 | 12.0 | 0.00 | 0.00 | 0.00 | 46 | 1017.8 |
| 20260901130239 | 86 | 153 | 3.0 | 12.0 | 0.00 | 0.00 | 0.00 | 46 | 1017.8 |